Tracking 17145 objects as of 23-May-2015
HD Live streaming from Space Station

COSMOS 1478

Track COSMOS 1478 now!
10-day predictions
COSMOS 1478 is classified as:


NORAD ID: 14176
Int'l Code: 1983-069F
Perigee: 1,469.9 km
Apogee: 1,488.4 km
Inclination: 74.0 °
Period: 115.4 minutes
Semi major axis: 7850 km
RCS: 0.7085 m2 (medium)
Launch date: July 6, 1983
Source: Commonwealth of Independent States (former USSR) (CIS)
Your satellite tracking list
Your tracking list is empty





NASA's NSSDC Master Catalog

Two Line Element Set (TLE):
1 14176U 83069F   15141.44539332 -.00000008  00000-0  51171-4 0  9998
2 14176 074.0264 358.3591 0011783 106.2899 322.1679 12.48208474452622

Source of the keplerian elements: AFSPC

N2YO: 331